N4QEP-13 Weather Reports


Display with metric or nautical units.
time (UTC)temp
F
wind
direction
speed
MPH
gust
MPH
rain 1hr
in
rain 24hr
in
rain mn
in
humidity
%
barometer
mb
20260507014530 75 200 0.0 4.0 0.00 0.00 0.00 75 1013.1
20260507013029 75 206 0.0 2.0 0.00 0.00 0.00 75 1013.2
20260507011529 75 191 0.0 3.0 0.00 0.00 0.00 75 1013.5
20260507010059 75 13 0.0 5.0 0.00 0.00 0.00 75 1013.4
20260507004558 75 214 0.0 5.0 0.00 0.00 0.00 75 1013.6
20260507003100 75 117 0.0 4.0 0.00 0.00 0.00 75 1014.1
20260507001610 75 23 1.0 4.0 0.00 0.00 0.00 75 1013.7
20260507000054 75 319 0.0 6.0 0.00 0.00 0.00 74 1013.6
20260506234601 75 109 0.0 6.0 0.00 0.00 0.00 74 1013.5
20260506233053 75 325 0.0 5.0 0.00 0.00 0.00 75 1013.3
20260506231553 75 243 0.0 4.0 0.00 0.00 0.00 75 1013.4
20260506230048 76 141 0.0 4.0 0.00 0.00 0.00 74 1013.6
20260506224604 76 174 0.0 1.0 0.00 0.00 0.00 74 1013.8
20260506223049 76 141 0.0 3.0 0.00 0.00 0.00 74 1014.0
20260506221545 77 293 0.0 4.0 0.00 0.00 0.00 72 1014.1
20260506220057 78 166 0.0 4.0 0.00 0.00 0.00 72 1014.2
20260506214544 78 171 0.0 3.0 0.00 0.00 0.00 71 1014.2
20260506213043 79 171 0.0 5.0 0.00 0.00 0.00 70 1014.3
20260506211543 79 129 0.0 5.0 0.00 0.00 0.00 70 1014.4
20260506210038 79 113 1.0 6.0 0.00 0.00 0.00 69 1014.5
20260506204538 78 195 0.0 3.0 0.00 0.00 0.00 71 1014.7
20260506203036 78 176 0.0 5.0 0.00 0.00 0.00 71 1014.9
20260506201533 78 288 0.0 3.0 0.00 0.00 0.00 71 1015.0
20260506200035 79 188 0.0 5.0 0.00 0.00 0.00 70 1015.0
20260506194537 80 229 1.0 6.0 0.00 0.00 0.00 68 1015.2
20260506193032 81 186 1.0 4.0 0.00 0.00 0.00 67 1015.4
20260506191529 81 155 1.0 3.0 0.00 0.00 0.00 67 1015.7
20260506190028 80 20 0.0 7.0 0.00 0.00 0.00 69 1016.1
20260506184530 80 163 0.0 5.0 0.00 0.00 0.00 68 1016.3
20260506183027 82 220 0.0 5.0 0.00 0.00 0.00 66 1016.4
20260506181616 82 281 1.0 6.0 0.00 0.00 0.00 64 1016.4
20260506180054 82 309 0.0 3.0 0.00 0.00 0.00 65 1016.6
20260506174552 83 248 0.0 4.0 0.00 0.00 0.00 64 1016.5
20260506173117 81 110 0.0 4.0 0.00 0.00 0.00 66 1016.7
20260506171553 80 56 0.0 3.0 0.00 0.00 0.00 69 1016.7
20260506170050 79 9 0.0 3.0 0.00 0.00 0.00 69 1017.0
20260506164542 79 26 0.0 2.0 0.00 0.00 0.00 69 1017.0
20260506163042 79 47 0.0 4.0 0.00 0.00 0.00 69 1017.0
20260506161541 79 225 1.0 5.0 0.00 0.00 0.00 68 1016.9
20260506160041 79 66 0.0 4.0 0.00 0.00 0.00 69 1017.0
20260506154534 79 209 0.0 3.0 0.00 0.00 0.00 70 1017.0
20260506153031 78 151 0.0 2.0 0.00 0.00 0.00 71 1016.9
20260506151531 77 221 0.0 3.0 0.00 0.00 0.00 72 1016.7
20260506150030 77 261 0.0 5.0 0.00 0.00 0.00 72 1016.6
20260506144523 77 213 0.0 2.0 0.00 0.00 0.00 72 1016.6
20260506143022 76 132 0.0 7.0 0.00 0.00 0.00 73 1016.5
20260506141521 76 258 0.0 3.0 0.00 0.00 0.00 72 1016.4
20260506140021 77 207 0.0 3.0 0.00 0.00 0.00 72 1016.2
20260506134518 76 224 2.0 5.0 0.00 0.00 0.00 73 1016.1
20260506133012 76 203 1.0 5.0 0.00 0.00 0.00 74 1016.0
20260506131520 75 257 0.0 4.0 0.00 0.00 0.00 75 1015.9
20260506130006 75 190 1.0 6.0 0.00 0.00 0.00 77 1015.6
20260506124533 73 342 0.0 4.0 0.00 0.00 0.00 80 1015.4
20260506123031 72 103 0.0 2.0 0.00 0.00 0.00 81 1015.4
20260506121525 71 56 0.0 1.0 0.00 0.00 0.00 81 1015.0
20260506120023 70 180 0.0 0.0 0.00 0.00 0.00 81 1014.8
20260506114522 70 180 0.0 0.0 0.00 0.00 0.00 81 1014.4
20260506113022 69 180 0.0 3.0 0.00 0.00 0.00 81 1014.3
20260506111514 68 68 0.0 1.0 0.00 0.00 0.00 81 1014.0
20260506110013 68 58 0.0 0.0 0.00 0.00 0.00 81 1013.8
20260506104510 67 58 0.0 0.0 0.00 0.00 0.00 81 1013.5
20260506103009 67 129 0.0 0.0 0.00 0.00 0.00 81 1013.3
20260506101506 66 128 0.0 1.0 0.00 0.00 0.00 81 1013.2
20260506100003 65 129 0.0 1.0 0.00 0.00 0.00 81 1013.0
20260506094502 63 128 0.0 0.0 0.00 0.00 0.00 81 1013.0
20260506093100 63 128 0.0 0.0 0.00 0.00 0.00 81 1013.1
20260506091557 64 128 0.0 0.0 0.00 0.00 0.00 81 1013.1
20260506090056 64 129 0.0 0.0 0.00 0.00 0.00 81 1013.3
20260506084553 63 129 0.0 0.0 0.00 0.00 0.00 81 1013.5
20260506083052 63 128 0.0 0.0 0.00 0.00 0.00 80 1013.5
20260506081554 63 129 0.0 0.0 0.00 0.00 0.00 81 1013.6
20260506073044 63 129 0.0 0.0 0.00 0.00 0.00 80 1013.8
20260506071545 63 129 0.0 0.0 0.00 0.00 0.00 80 1014.0
20260506061535 64 129 0.0 0.0 0.00 0.00 0.00 80 1014.3
20260506044513 64 101 0.0 0.0 0.00 0.00 0.00 77 1015.1
20260506043013 65 101 0.0 0.0 0.00 0.00 0.00 77 1015.1
20260506040014 65 101 0.0 0.0 0.00 0.00 0.00 75 1015.4
20260506034513 65 101 0.0 0.0 0.00 0.00 0.00 73 1015.3
20260506033016 65 101 0.0 0.0 0.00 0.00 0.00 73 1015.5
20260506030049 66 101 0.0 0.0 0.00 0.00 0.00 70 1015.4
20260506024558 66 101 0.0 0.0 0.00 0.00 0.00 70 1015.4
20260506023019 67 101 0.0 0.0 0.00 0.00 0.00 68 1015.2
20260506021521 67 101 0.0 0.0 0.00 0.00 0.00 68 1015.1
20260506020048 68 101 0.0 0.0 0.00 0.00 0.00 67 1014.9